Regional Weather Roundup
Issued by NWS

Home | Current Version | Previous Version | Text Only | Print | Product List | Glossary On
Versions: 1 2 3 4 5 6 7 8 9 10 11 12 13 14 15 16 17 18 19 20 21 22 23 24 25 26 27 28 29 30 31 32 33 34 35 36 37 38 39 40 41 42 43 44 45 46 47 48 49 50
000
ASUS46 KLOX 310913
RWRCA

SOUTHERN CALIFORNIA WEATHER ROUNDUP
NATIONAL WEATHER SERVICE OXNARD CALIFORNIA
200 AM PDT MON AUG 31 2015

NOTE: "FAIR" INDICATES FEW OR NO CLOUDS BELOW 12,000 FEET WITH NO
SIGNIFICANT WEATHER AND/OR OBSTRUCTIONS TO VISIBILITY.

  -  STATIONS PRECEEDED BY AN ASTERISK (*) ARE NOT NWS OR FAA
     STATIONS AND ARE NOT SUBJECT TO NWS AND FAA QUALITY CONTROL.

CAZ041-042-087-311000-
LA AND ORANGE COUNTY COASTAL AREAS


CITY           SKY/WX    TMP DP  RH WIND       PRES   REMARKS
L.A. DOWNTOWN  CLEAR     71  63  75 CALM      29.84F
L.A. AIRPORT   PTCLDY    70  64  81 CALM      29.84F
LONG BEACH     CLEAR     71  65  81 CALM      29.84F

CITY           SKY/WX    TMP DP  RH WIND       PRES   REMARKS
AVALON           N/A     66 N/A N/A S2          N/A
FULLERTON      MOCLDY    71  66  84 S3        29.84S
*GETTY CENTER    N/A     66  59  77 E1          N/A
HAWTHORNE      CLEAR     72  64  76 CALM      29.84F
*LEO CARRILLO    N/A     66  59  78 N6          N/A
*LOS ALAMITOS  FAIR      68  66  94 S2        29.84F
*REDONDO BEACH   N/A     66  61  85 CALM      29.85S
SANTA ANA      PTCLDY    70  65  84 SE5       29.84F
STA MONICA APT CLEAR     69  64  84 CALM      29.84F
*STA MON PIER    N/A     71  67  87 CALM      29.83F
*UCLA            N/A     66  61  82 CALM      29.82F

$$

CAZ547-548-048-311000-
LA COUNTY VALLEYS AND INLAND EMPIRE


CITY           SKY/WX    TMP DP  RH WIND       PRES   REMARKS
BURBANK        PTCLDY    73  60  63 E3        29.85F
VAN NUYS       PTCLDY    71  60  68 SE3       29.85F

CITY           SKY/WX    TMP DP  RH WIND       PRES   REMARKS
CORONA AIRPORT MOSUNNY   67  62  84 CALM      29.86S
*CHATSWORTH      N/A     70  59  69 CALM      29.83F
CHINO          PTCLDY    70  61  73 CALM      29.87S
MARCH AFB      CLEAR     68  60  76 SE3       29.88F
*NORTHRIDGE      N/A     70  57  64 CALM        N/A
ONTARIO        PTCLDY    71  60  68 CALM      29.86S
*PASADENA        N/A     70  63  78 CALM        N/A
RIVERSIDE      CLEAR     72  59  63 N3        29.86F
SAN BERNARDINO NOT AVBL
*SAN GABRIEL     N/A     71  65  82 W2        29.90F
*SAN RAFAEL HI   N/A     66  56  69 W3          N/A
*SAUGUS          N/A     72  55  54 NE3         N/A
*WHITEMAN AP   NOT AVBL
*WHITTIER HILL   N/A     63  63 100 SE3         N/A
*WOODLAND HILL   N/A     68  59  73 SE2         N/A

$$

CAZ054-055-311000-
LA AND SAN BERNARDINO COUNTY MOUNTAINS


CITY           SKY/WX    TMP DP  RH WIND       PRES   REMARKS
*BIG BEAR AIRP SUNNY     46  36  66 CALM      30.17F
*CHILAO          N/A     63  48  58 E8          N/A
SANDBERG       CLEAR     62  49  62 N21G31    30.06S
*WARM SPRINGS    N/A     64  49  57 NW21        N/A

$$

CAZ028-029-059-060-099-311000-
ANTELOPE VALLEY AND SURROUNDING AREAS


CITY           SKY/WX    TMP DP  RH WIND       PRES   REMARKS
LANCASTER      PTCLDY    72  51  47 W20       29.91F
PALMDALE       PTCLDY    71  49  45 W8        29.93F
*POPPY PARK      N/A     69  50  50 W21G32      N/A

CITY           SKY/WX    TMP DP  RH WIND       PRES   REMARKS
29 PALMS       CLEAR     81  49  32 W12       29.90F
BARSTOW/DAGGET CLEAR     76  48  37 W17       29.87R
BISHOP         CLEAR     69  30  23 NW8       29.99S
CHINA LAKE     PTCLDY    73  42  32 S8        29.85R
EDWARDS AFB    PTCLDY    71  50  48 W12       29.87F
MOJAVE         CLEAR     72  50  46 NW12G17   29.92R
NEEDLES        CLEAR     92  41  17 SW9       29.73S
VICTORVILLE    CLEAR     68  48  49 SW3       29.95S

$$

CAZ039-040-311000-
VENTURA AND SANTA BARBARA COUNTY COAST


CITY           SKY/WX    TMP DP  RH WIND       PRES   REMARKS
CAMARILLO      CLEAR     68  60  75 CALM      29.83F
NWS OXNARD       N/A     66  60  81 CALM      29.83S
OXNARD AIRPORT CLEAR     68  62  81 CALM      29.83F
SBA APT/GOLETA CLEAR     70  64  81 E5        29.82S
*SANTA BARBARA   N/A     71  63  77 CALM      29.90F
*VENTURA         N/A     67  61  81 CALM      29.44S

$$

CAZ044-045-311000-
VENTURA COUNTY VALLEYS


CITY           SKY/WX    TMP DP  RH WIND       PRES   REMARKS
*SIMI VALLEY     N/A     70  59  68 CALM      29.77F
*OJAI            N/A     63  58  84 CALM      29.76F
*FILLMORE        N/A     65  59  80 CALM      29.73F

$$

CAZ053-311000-
VENTURA COUNTY MOUNTAINS


CITY           SKY/WX    TMP DP  RH WIND       PRES   REMARKS

$$

CAZ034-035-036-311000-
CENTRAL COAST AND SANTA YNEZ VALLEY


CITY           SKY/WX    TMP DP  RH WIND       PRES   REMARKS
SAN LUIS OBISP CLEAR     66  54  65 VRB6G17   29.89S
SANTA MARIA    CLEAR     59  57  93 NW5       29.89F

CITY           SKY/WX    TMP DP  RH WIND       PRES   REMARKS
*CAL POLY SLO    N/A     72  55  56 N8          N/A
*LOMPOC        CLEAR     55  48  76 CALM      29.90S
*PISMO BEACH     N/A     62  57  83 CALM      29.88F
*SANTA YNEZ    FAIR      55  54  94 CALM      29.89F

$$

CAZ037-038-051-311000-
SAN LUIS OBISPO COUNTY INTERIOR AND CUYAMA VALLEY


CITY           SKY/WX    TMP DP  RH WIND       PRES   REMARKS
*CUYAMA          N/A     65  46  50 S3        29.86F
PASO ROBLES    CLEAR     64  55  72 NW12G24   29.94S

$$

CAZ032-033-061-311000-
SOUTHERN DESERTS


CITY           SKY/WX    TMP DP  RH WIND       PRES   REMARKS
BLYTHE         MOCLDY    91  48  22 S13       29.71S
IMPERIAL       MOCLDY    86  45  23 W8        29.69S
PALM SPRINGS   CLEAR     88  55  32 CALM      29.73F
THERMAL        PTCLDY    87  56  34 NW13      29.67S

$$

ELSEWHERE ACROSS THE WESTERN UNITED STATES AND MEXICO


CITY           SKY/WX    TMP DP  RH WIND       PRES   REMARKS
DEATH VALLEY,    N/A     93  38  14 SE2         N/A
DENVER, CO     CLOUDY    71  45  39 W14       30.02R
GRAND CANYON,    N/A    N/A N/A N/A MISG      30.23S
HONOLULU, HI   PTCLDY    82  73  74 NE5       29.91R
KAHULUI, MAUI  CLEAR     81  75  83 N6        29.91S
LAKE TAHOE, CA CLEAR     42  32  67 SW3       30.17F
LAS VEGAS, NV  PTCLDY    85  43  22 S6        29.78S
MAMMOTH LAKES, FAIR      55  28  35 W9        30.22F
MEXICO CITY, M MOCLDY    55  52  88 E7        30.33F
PHOENIX, AZ    PTCLDY    88  65  46 SE6       29.81R HX  90
PORTLAND, OR   MOCLDY    61  53  75 SE6       30.07S
RENO, NV       CLEAR     60  28  29 W5        30.10S
SALT LAKE CITY MOCLDY    68  45  43 NW5       30.01R
SAN DIEGO, CA  MOCLDY    70  63  78 CALM      29.87F
SAN FRANCISCO, PTCLDY    62  55  77 W9        29.93F
SAN JOSE, CA   CLEAR     63  57  81 CALM      29.94S
SEATTLE, WA    CLOUDY    62  50  64 S13       30.00S
TIJUANA, MEX   PTCLDY    66  61  82 CALM      29.89S

$$

STATION/POSITION TIME  TEMP    WIND        PRES    VSBY  WAVE
                       AIR SEA DIR/SP/G                  HT/PER
                 (UTC) (F)     (DEG/KT/KT) (MB)    (MI)  (FT/S)
POINT ARGUELLO B NOT AVBL
WEST SANTA BARBA 0850   63 64  330/ 21/ 25 1009.6F         9/ 8
POINT CONCEPTION NOT AVBL
EAST SANTA BARBA 0900   70 70  210/  2/  4 1010.1R
SANTA MONICA BAY 0850   71 73  120/  8/  8 1010.0F         4/13



USA.gov is the U.S. government's official web portal to all federal, state and local government web resources and services.